BREEZE-M DEB [TANK]

Last updated on Thu Jul 03 2025 00:02:07 GMT+0000 (Coordinated Universal Time)

1 64469U 25131C 25183.26884112 .00005898 00000+0 18305-2 0 9990 2 64469 61.1336 273.2343 6896761 178.2826 186.9562 2.76874140 288
UTC large
Height (km)
Speed (km/s)
/
Latitude / Longitude
Inclination (degrees)
Orbital Period (minutes)
Azimuth
Elevation
Range (km)
Doppler Factor

Next 0 passes for location: London (51.5072 / 0.1276)

Sorry there are no passes over London.